Preview of NWS' New Version of Forecast
This preview is not operational and should not be used for support decisions.
Latest weather observations around

Missoula, Missoula International Airport (KMSO)

Using International System of Units (Switch to English Units)
Date/ Time (MDT) Wind (kph) Vis. (km) Weather Sky Cond. Temp (°C) Rel. Humidity Wind Chill (°C) Heat Index (°C) Pressure Precip. (cm)
Air Dwpt 6 hour Altimeter (hPa) Sea level (hPa) 1 hr 3 hr 6 hr
Max Min
Jun 21 10:53 NNW 8 16.09 Cloudy SCT070 OVC085 17 13     75%     1016.9 1015.6 0    
Jun 21 09:53 Calm 16.09 Cloudy OVC085 16 13     83%     1016.9 1015.8      
Jun 21 09:21 Calm 16.09 Cloudy OVC085 15 12     83%     1016.9        
Jun 21 09:06 Calm 16.09 Cloudy OVC085 14 12     87%     1016.9        
Jun 21 08:53 N 5 16.09 Cloudy FEW004 OVC090 14 12     89%     1016.9 1015.8 0 0  
Jun 21 08:38 N 8 16.09 Light Rain FEW004 OVC090 14 12     89%     1016.9   0    
Jun 21 07:53 SSW 5 11.27 Light Rain BKN060 OVC090 13 12     96%     1016.9 1015.9 0    
Jun 21 06:53 NNW 5 16.09 Mostly Clear FEW080 FEW100 14 12     87%     1016.9 1015.3      
Jun 21 05:53 Calm 16.09 Clear CLR 12 11     93%     1016.3 1014.6      
Jun 21 04:53 N 8 16.09 Clear CLR 12 10     89%     1015.9 1014.3      
Jun 21 03:53 Calm 16.09 Clear CLR 12 11     90%     1015.9 1014.4      
Jun 21 02:53 Calm 16.09 Mostly Cloudy BKN120 13 11     89%     1016.3 1014.7      
Jun 21 01:53 NNE 5 16.09 Clear CLR 13 11     84%     1016.3 1015      
Jun 21 00:53 Calm 16.09 Mostly Cloudy BKN120 14 11     81%     1016.9 1015.5      
Jun 20 23:53 WNW 8 16.09 Clear CLR 14 12     89%     1016.6 1015.6     0
Jun 20 22:53 N 5 16.09 Clear CLR 17 13     80%     1016.6 1015.4      
Jun 20 21:53 Calm 16.09 Mostly Cloudy BKN110 18 13     75%     1016.6 1015.4 0    
Jun 20 20:53 WNW 5 16.09 Light Rain BKN095 OVC110 19 14     73%     1016.9 1015.7 0 0  
Jun 20 19:53 SW 8 16.09 Light Rain FEW050 SCT075 OVC090 19 13     68%     1016.6 1015.6 0    
Jun 20 18:53 S 13 16.09 Mostly Cloudy FEW090 BKN120 23 12     51%   22 1015.9 1014.8      
Jun 20 17:53 Calm 16.09 Clear CLR 24 9     39%   24 1016.3 1015.2      
Jun 20 16:53 S 5 16.09 Clear CLR 25 9     37%   25 1016.9 1015.7      
Jun 20 15:53 Calm 16.09 Clear CLR 25 9     36%   24 1017.6 1016.2      
Jun 20 14:53 5 16.09 Clear CLR 24 11     43%   23 1018.3 1017.1      
Jun 20 13:53 S 11 16.09 Clear CLR 22 12     53%   22 1019 1017.9      
Jun 20 12:53 8 16.09 Clear CLR 21 12     57%     1019.7 1018.8      
Jun 20 11:53 Calm 16.09 Clear CLR 19 12     63%     1020.3 1019.6      
Jun 20 10:53 5 16.09 Mostly Clear FEW017 17 11     67%     1021 1020.3      
Jun 20 10:02 Calm 16.09 Mostly Cloudy BKN017 16 11     72%     1022        
Jun 20 09:53 W 8 12.87 Partly Cloudy SCT017 15 11     75%     1022 1021      
Jun 20 09:36 Calm 16.09 Partly Cloudy SCT013 14 11     78%     1022        
Jun 20 08:53 WSW 8 16.09 Mostly Cloudy BKN012 13 11     84%     1022.4 1021.2      
Jun 20 08:29 WSW 9 16.09 Mostly Cloudy BKN012 13 10     83%     1022        
Jun 20 08:14 Calm 16.09 Mostly Clear FEW009 13 10     83%     1022        
Jun 20 07:53 Calm 16.09 Partly Cloudy SCT011 13 10     83%     1022 1021      
Jun 20 06:53 WSW 5 16.09 Cloudy OVC012 10 9     93% 10   1022.4 1021.5      
Jun 20 06:46 W 5 16.09 Mostly Cloudy BKN012 11 9     89%     1022        
Jun 20 06:12 Calm 16.09 Cloudy OVC014 9 7     89%     1022.4        
Jun 20 05:53 Calm 16.09 Mostly Cloudy BKN012 9 7     86%     1022.4 1022      
Jun 20 05:39 N 5 16.09 Mostly Clear FEW012 9 7     89% 8   1022.4        
Jun 20 05:31 Calm 16.09 Mostly Cloudy BKN012 9 7     89%     1022.4        
Jun 20 05:12 WNW 5 16.09 Mostly Cloudy BKN013 9 8     93% 8   1022.4        
Jun 20 04:53 Calm 16.09 Mostly Clear FEW013 8 7     90%     1022.4 1021.7      
Jun 20 04:04 N 5 16.09 Partly Cloudy SCT015 9 7     89% 8   1022.4        
Jun 20 03:53 N 8 16.09 Clear CLR 9 7     89% 8   1022 1021.6      
Jun 20 02:53 Calm 16.09 Clear CLR 10 8     86%     1022 1021.3      
Jun 20 01:53 Calm 16.09 Clear CLR 11 8     86%     1022 1021.3      
Jun 20 00:53 N 8 16.09 Clear CLR 11 8     86%     1022 1021.6      
Jun 19 23:53 Calm 16.09 Clear   12 10     89%     1021.7 1021.3      
Jun 19 22:53 Calm 16.09 Mostly Clear FEW070 14 11     81%     1022 1021.2      
Jun 19 21:53 Calm 16.09 Partly Cloudy SCT060 17 11     67%     1021.3 1020.6      
Jun 19 20:53 N 11 16.09 Mostly Clear FEW060 18 10     58%     1021 1020.2      
Jun 19 19:53 NNW 9 16.09 Mostly Clear FEW090 19 10     55%     1020.7 1019.7      
Jun 19 18:53 N 13 16.09 Mostly Cloudy FEW060 BKN090 19 10     55%     1020.7 1019.8      
Jun 19 17:53 N 13 16.09 Mostly Cloudy BKN090 19 11     59%     1020.7 1020     0
Jun 19 16:53 N 17 16.09 Cloudy BKN065 OVC085 21 10     51%     1020.7 1019.4      
Jun 19 15:53 N 13 16.09 Mostly Cloudy BKN070 BKN090 19 10     55%     1020.3 1019.6      
Jun 19 14:53 WSW 8 16.09 Mostly Cloudy FEW070 BKN090 19 11     61%     1020.7 1019.7   0  
Jun 19 13:53 5 16.09 Cloudy BKN065 OVC080 18 12     70%     1021 1020.1 0    
Jun 19 12:53 W 8 16.09 Mostly Cloudy SCT060 BKN075 16 11     70%     1021 1020.2 0    
Jun 19 11:53 NW 9 16.09 Light Rain BKN060 OVC080 16 11     72%     1021 1020.3 0   0
Jun 19 10:53 WNW 11 16.09 Cloudy OVC070 16 12     78%     1020.7 1020.1 0    
Jun 19 09:53 5 16.09 Light Rain OVC070 14 11     83%     1020.7 1020.1 0    
Jun 19 08:53 WNW 11 16.09 Cloudy OVC070 13 11     89%     1020.3 1019.8 0 0  
Jun 19 07:53 NW 13 16.09 Light Rain SCT070 OVC090 13 11     84%     1020 1019.4 0    
Jun 19 06:53 NW 8 16.09 Cloudy OVC070 12 11     90%     1019.3 1018.9      
Jun 19 05:53 NW 11 16.09 Cloudy BKN031 OVC070 12 10     86%     1019 1018.4     0
Jun 19 04:53 WNW 8 16.09 Mostly Cloudy BKN030 BKN065 BKN080 12 11     90%     1018.6 1018.1      
Jun 19 03:53 W 13 16.09 Clear   12 11     93%     1018.3 1017.9 0    
Jun 19 02:53 WNW 11 16.09 Light Rain FEW031 OVC055 12 11     90%     1018.3 1017.9 0 0  
Jun 19 02:16 WNW 13 16.09 Light Rain SCT029 OVC050 12 11     90%     1018.3   0    
Jun 19 02:00 NNW 9 16.09 Cloudy BKN029 OVC050 13 10     83%     1018.3        
Jun 19 01:53 NW 15 16.09 Cloudy SCT029 OVC050 13 10     83%     1018.3 1017.5      
Jun 19 01:05 NNW 15 16.09 Cloudy FEW025 OVC055 13 10     83%     1018.3        
Jun 19 00:53 NW 17 16.09 Cloudy OVC055 13 10     83%     1018 1017.6 0    
Jun 18 23:53 NW 17 16.09 Light Rain FEW026 BKN060 OVC070 12 11     90%     1018 1017.8 0   0
Jun 18 22:53 NNW 18 16.09 Light Rain OVC075 13 10     80%     1018 1017.6 0    
Jun 18 21:53 NW 15 14.48 Light Rain OVC070 13 12     90%     1017.6 1017 0    
Jun 18 20:53 NW 13 14.48 Light Rain OVC070 14 12     89%     1016.9 1016.6 0 0  
Jun 18 19:53 WNW 15 11.27 Light Rain OVC070 14 12     87%     1016.6 1016.2 0    
Jun 18 18:53 WNW 9 11.27 Light Rain BKN070 OVC080 15 13     87%     1016.6 1016 0    
Jun 18 17:53 W 13 16.09 Light Rain FEW023 BKN055 OVC090 15 13     87%     1016.3 1015.7 0   1
Jun 18 17:10 W 15 16.09 Light Rain FEW030 BKN050 OVC075 14 13     90%     1016.3   0    
Jun 18 16:53 WNW 11 16.09 Rain BKN048 OVC070 14 13     90%     1015.9 1015.5 0    
Jun 18 16:31 WNW 17 16.09 Rain BKN041 OVC048 14 12     89%     1015.9   0    
Jun 18 16:24 NW 18 2.82 Rain and Fog/Mist BKN040 OVC046 14 12     87%     1015.9   0    
Jun 18 15:53 NW 17 16.09 Light Rain FEW039 BKN048 OVC075 15 12     81%     1015.9 1015.3 0    
Jun 18 14:53 NNW 15 9.66 Light Rain SCT038 BKN050 OVC090 15 12     83%     1015.6 1015 0 0  
Jun 18 14:25 NW 17 16.09 Light Rain SCT035 BKN047 OVC090 16 12     78%     1015.6   0    
Jun 18 13:53 WNW 18 16.09 Light Rain BKN070 OVC085 16 12     80%     1015.6 1014.6 0    
Jun 18 13:01 WNW 15 16.09 Light Rain FEW033 OVC060 15 12     81%     1015.6   0    
Jun 18 12:53 WNW 15 16.09 Light Rain FEW050 BKN060 OVC075 15 12     83%     1015.6 1014.9 0    
May 14 10:53 S 5 16.09 Clear CLR 14 6     55%     1020.3 1019.6      
May 14 06:53 SSE 5 16.09 Clear CLR 6 3     82% 5   1020.7 1020.5      
May 12 22:53 Calm 16.09 Clear CLR 11 3     59%     1014.9 1014.9      
May 12 18:53 N 15 16.09 Clear CLR 19 3     34%     1013.6 1013.5      
May 11 17:53   16.09 Mostly Clear FEW060 13 7     66%     1017.6 1017.8     0
Jun 11 20:53   16.09 Clear   18 2     34%     1009.8 1009.3      
Jun 11 14:53 W 8 16.09 Clear CLR 18 -2     25%     1012.2 1012.4      
Jun 10 12:13 8 9.66 Light Rain FEW035 BKN043 OVC055 11 5     66%     1007.5   0    
Jun 10 08:53 S 11 16.09 Clear CLR 11 5     68%     1007.5 1007.1      
Jun 09 13:53 11 16.09 Light Rain FEW026 SCT037 BKN047 14 9     72%     1009.2 1008.7 0    
Jun 08 21:53   16.09 Mostly Clear FEW120 18 11     63%     1007.5 1005.9      
Jun 07 23:53 E 17 16.09 Clear CLR 21 12     57%     1010.5 1008.2      
Jun 07 09:53 Calm 16.09 Clear CLR 19 11     61%     1015.6 1013.8      
Jun 06 01:53 N 8 16.09 Clear CLR 8 5     80% 7   1021.7 1021.1